Location: Bojszowy Dolne
(50.0553°N, 19.1094°E)
Time: 04:30:22
(UTC+00:00)

Daily predictions for brighter satellites

Satellite Brightness Start Highest point End
(mag) Time Altitude Azimuth Time Altitude Azimuth Time Altitude Azimuth
ATLAS 2AS CENTAUR R/B 4.4 00:55:54 31° N 00:55:54 31° N 01:01:02 10° NE
Cosmos 2333 Rocket 4.4 01:25:47 20° NNE 01:25:47 20° NNE 01:27:30 10° NNE
Cosmos 2237 Rocket 3.8 01:52:28 30° NE 01:52:28 30° NE 01:55:18 10° NNE
USA 215 3.8 01:46:19 10° ENE 01:51:07 52° ENE 01:51:07 52° ENE
Cosmos 2219 Rocket 4.0 02:01:02 24° N 02:01:02 24° N 02:03:24 10° NNE
ATLAS CENTAUR R/B 3.9 02:13:09 23° ENE 02:13:09 23° ENE 02:15:01 10° NE
Cosmos 2360 Rocket 4.3 02:13:23 17° N 02:13:23 17° N 02:15:14 10° N
NOSS 3-1 (A) 4.1 02:14:15 71° SE 02:14:15 71° SE 02:21:45 10° SE
Cosmos 1943 Rocket 3.4 02:13:49 35° NNE 02:14:41 37° NE 02:19:46 10° ESE
COSMOS 2428 4.3 02:22:37 27° N 02:22:37 27° N 02:25:31 10° NNE
SL-16 R/B 2.7 02:33:07 55° ESE 02:33:07 55° ESE 02:38:32 10° NE
Cosmos 2369 Rocket 3.1 02:38:57 20° NNW 02:42:44 47° NE 02:48:13 10° SE
ATLAS 2AS CENTAUR R/B 4.3 02:43:18 21° NW 02:47:18 31° N 02:53:50 10° ENE
CZ-4C R/B 2.7 02:49:27 50° N 02:49:27 50° N 02:54:59 10° NE
ADEOS II 4.2 02:46:27 10° N 02:47:33 15° NNW 02:47:33 15° NNW
Cosmos 1934 Rocket 3.9 02:47:13 10° NNW 03:01:36 - S 02:53:10 75° WNW
IDEFIX/ARIANE 42P 3.4 02:49:52 10° N 02:53:19 40° N 02:53:19 40° N
Cosmos 2251 Rocket 3.6 02:55:35 72° ESE 02:55:41 72° ESE 03:01:00 10° NNE
Lacrosse 5 2.2 02:56:47 57° SE 02:56:47 57° SE 03:00:49 10° SE
PAYLOAD A 4.1 02:51:32 10° NNE 02:56:24 69° ESE 02:56:33 68° ESE
COSMO-SKYMED 1 4.2 03:02:01 10° SE 03:05:56 34° ENE 03:09:52 10° N
BREEZE M DEB (TANK) 3.7 03:06:55 45° E 03:06:55 45° E 03:10:53 10° E
Meteor 2-3 Rocket 4.0 03:00:17 10° N 03:06:03 68° ENE 03:11:48 10° SSE
Cosmos 2333 Rocket 3.8 03:07:47 21° NNW 03:07:47 21° NNW 03:11:17 10° NNE
CZ-2C R/B 2.6 03:04:00 10° NNE 03:09:14 76° ESE 03:10:46 46° S
Cosmos 2221 4.0 03:06:13 10° SSE 03:10:07 35° E 03:14:03 10° NNE
Cosmos 1605 Rocket 3.8 03:11:19 10° NNW 03:17:35 77° W 03:23:43 10° S
ALOS 4.2 03:13:40 10° NNE 03:17:45 29° E 03:21:47 10° SSE
SJ-6F 4.5 03:15:02 10° NNE 03:18:52 74° NE 03:18:52 74° NE
Cosmos 1484 Rocket 4.2 03:17:22 10° NNE 03:21:05 38° E 03:24:49 10° SSE
BREEZE-M DEB (TANK) 2.9 03:21:49 64° WSW 03:22:27 75° SSW 03:33:46 10° ESE
ADEOS 3.5 03:21:51 10° N 03:27:01 62° WNW 03:27:38 58° WSW
GEOS 3 Rocket 4.3 03:24:26 10° NE 03:29:38 53° SE 03:33:19 19° SSW
Cosmos 1153 Rocket 4.4 03:26:10 10° N 03:32:22 89° W 03:38:30 10° S
NOSS 2-1 (E) 3.4 03:32:56 56° N 03:32:56 56° N 03:36:21 10° NE
STARLINK-1129 4.1 03:33:21 41° NE 03:33:21 41° NE 03:35:56 10° ENE
Cosmos 2237 Rocket 3.2 03:34:18 29° NW 03:34:18 29° NW 03:39:07 10° NNE
STARLINK-1134 4.0 03:35:16 43° NNE 03:35:16 43° NNE 03:37:56 10° ENE
USA 215 3.6 03:29:23 10° ENE 03:35:44 54° NNW 03:38:28 33° WNW
STARLINK-1135 3.9 03:37:34 44° NNE 03:37:34 44° NNE 03:40:20 10° ENE
Meteor 1-27 4.4 03:32:03 10° S 03:37:34 72° E 03:43:08 10° NNE
Spot 2 3.8 03:34:27 10° N 03:38:29 64° WNW 03:38:30 64° WNW
Cosmos 407 Rocket 4.4 03:33:28 10° S 03:38:34 49° ESE 03:43:39 10° NNE
STARLINK-1141 3.8 03:39:46 45° NNE 03:39:46 45° NNE 03:42:37 10° ENE
Meteor 2-10 Rocket 3.7 03:40:28 46° W 03:41:01 48° WNW 03:46:02 10° N
STARLINK-1140 3.7 03:41:52 46° NNE 03:41:52 46° NNE 03:44:49 10° ENE
Cosmos 2219 Rocket 4.0 03:42:44 15° NW 03:43:13 15° NNW 03:46:32 10° N
STARLINK-1156 3.6 03:44:03 47° N 03:44:03 47° N 03:47:06 10° ENE
CZ-4B R/B 2.6 03:40:45 10° NNE 03:44:28 81° ESE 03:46:10 30° S
STARLINK-1148 3.6 03:46:11 47° N 03:46:11 47° N 03:49:20 10° ENE
Aureole 2 Rocket 2.4 03:47:43 60° SSE 03:47:43 60° SSE 03:50:21 10° SSE
Cosmos 1727 Rocket 3.9 03:41:28 10° S 03:47:40 86° W 03:53:53 10° N
STARLINK-1158 3.5 03:48:21 47° N 03:48:23 48° N 03:51:36 10° ENE
Meteor 1-31 Rocket 2.6 03:45:33 10° N 03:49:21 70° WNW 03:50:23 45° SW
Cosmos 1805 Rocket 4.2 03:45:28 10° N 03:49:45 56° ENE 03:54:00 10° SSE
ATLAS CENTAUR R/B 2.1 03:49:21 39° NW 03:49:47 40° NW 03:53:57 10° NNE
Sich 1 4.2 03:48:03 10° N 03:52:10 43° ENE 03:56:16 10° SSE
Cosmos 2173 Rocket 4.1 03:46:19 10° N 03:52:40 79° E 03:58:53 10° SSE
SKYMED 2 3.5 03:49:32 10° SSE 03:53:53 86° WSW 03:58:16 10° NNW
MSX 4.4 03:51:00 10° N 03:56:07 35° WNW 03:57:22 31° W
Cosmos 1500 Rocket 3.5 03:52:49 10° NNW 03:57:13 61° W 04:01:33 10° S
Cosmos 1943 Rocket 2.4 03:55:25 22° NW 03:58:32 45° WSW 04:03:44 10° S
H-2A R/B 2.6 03:57:56 10° N 04:02:15 60° WNW 04:06:15 12° SSW
Cosmos 1190 Rocket 4.4 03:57:15 10° S 04:02:28 65° ESE 04:07:44 10° NNE
Cosmos 614 Rocket 4.0 03:57:54 10° SSW 04:03:04 84° ESE 04:08:18 10° NNE
Cosmos 1356 Rocket 4.1 04:03:55 32° WNW 04:03:55 32° WNW 04:07:23 10° N
Okean O Rocket 3.2 04:03:41 10° NNE 04:07:46 37° E 04:11:47 10° SSE
STARLINK-1153 3.3 04:07:20 40° NNW 04:07:51 45° N 04:10:41 10° E
STARLINK-1180 3.3 04:07:31 40° NNW 04:08:03 46° N 04:10:54 10° E
Cosmos 2100 Rocket 3.9 04:01:52 10° NNW 04:08:08 78° W 04:14:16 10° S
STARLINK-1174 3.3 04:07:58 39° NNW 04:08:31 46° N 04:11:22 10° E
STARLINK-1139 3.3 04:08:11 39° NNW 04:08:44 46° N 04:11:35 10° E
STARLINK-1133 3.3 04:08:24 39° NNW 04:08:58 46° N 04:11:49 10° E
STARLINK-1151 3.3 04:08:38 39° NNW 04:09:13 46° N 04:12:04 10° E
Cosmos 1743 Rocket 3.8 04:05:16 10° NNW 04:09:21 42° W 04:13:26 10° SSW
STARLINK-1118 4.0 04:09:01 24° S 04:09:47 29° SSE 04:12:04 10° E
STARLINK-1160 3.3 04:09:16 39° NNW 04:09:52 46° N 04:12:43 10° E
STARLINK-1161 3.3 04:09:29 38° NNW 04:10:05 46° N 04:12:56 10° E
STARLINK-1145 3.3 04:09:42 38° NNW 04:10:20 46° N 04:13:10 10° E
STARLINK-1172 3.3 04:09:55 38° NW 04:10:33 46° N 04:13:24 10° E
STARLINK-1182 3.3 04:10:21 38° NW 04:10:59 46° N 04:13:50 10° E
STARLINK-1164 3.3 04:10:33 38° NW 04:11:13 46° N 04:14:03 10° E
STARLINK-1168 3.3 04:10:47 37° NW 04:11:27 46° N 04:14:18 10° E
STARLINK-1183 3.3 04:11:25 37° NW 04:12:07 46° N 04:14:58 10° E
STARLINK-1181 3.3 04:11:38 37° NW 04:12:20 46° N 04:15:11 10° E
STARLINK-1196 3.3 04:12:17 36° NW 04:13:02 46° N 04:15:53 10° E
Cosmos 1869 3.2 04:09:11 10° SSW 04:13:11 80° W 04:17:10 10° N
STARLINK-1149 3.2 04:12:46 38° NNW 04:13:19 45° N 04:15:58 10° E
STARLINK-1186 3.3 04:12:44 36° NW 04:13:29 46° N 04:16:20 10° E
STARLINK-1185 3.3 04:12:57 36° NW 04:13:42 46° N 04:16:33 10° E
STARLINK-1175 3.3 04:13:09 36° NW 04:13:54 47° N 04:16:46 10° E
STARLINK-1147 3.3 04:13:22 35° NW 04:14:09 47° N 04:17:01 10° E
STARLINK-1146 3.3 04:13:35 35° NW 04:14:23 47° N 04:17:14 10° E
STARLINK-1152 3.3 04:13:48 35° NW 04:14:36 47° N 04:17:28 10° E
STARLINK-1195 3.3 04:14:01 35° NW 04:14:50 47° N 04:17:41 10° E
STARLINK-1137 3.3 04:14:14 35° NW 04:15:03 47° N 04:17:54 10° E
STARLINK-1142 3.3 04:14:28 35° NW 04:15:17 47° N 04:18:08 10° E
STARLINK-1127 3.3 04:14:40 34° NW 04:15:31 47° N 04:18:22 10° E
STARLINK-1184 3.3 04:14:53 34° NW 04:15:44 47° N 04:18:35 10° E
STARLINK-1193 3.3 04:15:07 34° NW 04:15:58 47° N 04:18:49 10° E
STARLINK-1194 3.3 04:15:18 34° NW 04:16:10 47° N 04:19:01 10° E
SL-16 R/B 3.0 04:15:01 24° W 04:17:24 33° NW 04:22:31 10° NNE
Cosmos 1000 Rocket 4.5 04:12:55 10° S 04:19:06 89° W 04:25:24 10° N
FENGYUN 3A 3.6 04:14:26 10° NNE 04:19:56 88° WNW 04:25:22 10° SSW
STARLINK-1132 3.2 04:20:14 32° NW 04:21:08 48° N 04:23:51 10° E
Cosmos 1459 Rocket 3.9 04:15:36 10° NNW 04:21:43 68° W 04:27:54 10° S
Cosmos 2061 Rocket 4.0 04:15:55 10° N 04:22:15 89° W 04:28:29 10° S
STARLINK-1150 3.1 04:22:37 30° NW 04:23:37 49° N 04:26:21 10° E
STARLINK-1162 3.4 04:22:57 27° WNW 04:24:26 51° N 04:27:35 10° E
STARLINK-1163 3.1 04:23:49 29° NW 04:24:52 49° N 04:27:34 10° E
Cosmos 1842 Rocket 4.2 04:21:59 14° SW 04:25:24 34° WNW 04:29:31 10° N
STARLINK-1157 3.4 04:24:51 25° WNW 04:26:24 52° N 04:29:33 10° E
Cosmos 2369 Rocket 2.7 04:21:28 10° NW 04:26:39 36° WSW 04:31:48 10° S
STARLINK-1173 3.1 04:25:37 28° NW 04:26:44 49° N 04:29:28 10° E
STARLINK-1177 3.1 04:25:47 28° NW 04:26:55 50° N 04:29:37 10° E
Cosmos 1238 Rocket 3.7 04:20:48 10° N 04:27:05 81° W 04:32:24 10° S
Shenzhou-11 Module 4.4 04:26:16 10° SSW 04:27:38 13° SSE 04:28:59 10° SE
STARLINK-1167 3.1 04:26:35 27° NW 04:27:45 50° N 04:30:28 10° E
STARLINK-1159 3.4 04:26:50 24° WNW 04:28:30 52° N 04:31:39 10° E
SJ-12 3.9 04:26:21 10° N 04:30:26 60° WNW 04:34:31 10° SSW
Meteor PRIRODA 4.1 04:27:09 10° N 04:30:39 40° WNW 04:34:06 10° SW
STARLINK-1171 3.4 04:28:59 23° WNW 04:30:43 53° N 04:33:53 10° E
STARLINK-1070 3.5 04:29:12 16° SW 04:31:18 46° SSE 04:34:08 10° ENE
STARLINK-1124 3.2 04:29:56 18° SW 04:31:53 55° SSE 04:34:45 10° ENE
NOSS 2-1 (C) 4.5 04:30:40 20° WNW 04:32:06 25° NNW 04:35:33 10° NNE
STARLINK-1066 3.5 04:30:06 16° SW 04:32:13 47° SSE 04:35:04 10° ENE
Cosmos 1725 Rocket 4.1 04:26:00 10° N 04:32:17 86° E 04:38:35 10° S
STARLINK-1081 3.5 04:30:19 16° SW 04:32:27 47° SSE 04:35:17 10° ENE
STARLINK-1136 3.0 04:31:18 24° NW 04:32:40 52° NNE 04:35:24 10° E
STARLINK-1155 3.4 04:30:56 22° WNW 04:32:46 54° N 04:35:57 10° E
STARLINK-1069 3.5 04:30:45 16° SW 04:32:53 48° SSE 04:35:44 10° ENE
STARLINK-1085 3.5 04:30:58 15° SW 04:33:07 48° SSE 04:35:58 10° ENE
STARLINK-1086 3.5 04:31:11 15° SW 04:33:21 48° SSE 04:36:12 10° ENE
Cosmos 1603 3.7 04:27:44 10° SW 04:33:25 66° WNW 04:39:06 10° NNE
STARLINK-1095 3.5 04:31:24 15° SW 04:33:34 48° SSE 04:36:25 10° ENE
IDEFIX/ARIANE 42P 4.4 04:31:28 10° NNW 04:33:40 13° NW 04:34:07 13° NW
H-2A R/B 4.5 04:30:15 10° NNE 04:33:46 36° E 04:37:12 10° SSE
STARLINK-1077 3.5 04:31:37 15° SW 04:33:48 49° SSE 04:36:39 10° ENE
STARLINK-1075 3.5 04:31:50 15° SW 04:34:01 49° SSE 04:36:53 10° ENE
STARLINK-1093 3.4 04:32:03 15° SW 04:34:14 49° SSE 04:37:06 10° ENE
Cosmos 921 Rocket 3.5 04:30:07 10° NW 04:34:16 39° WSW 04:38:20 10° S
STARLINK-1074 3.4 04:32:15 15° SW 04:34:27 49° SSE 04:37:19 10° ENE
STARLINK-1087 3.4 04:32:29 15° SW 04:34:42 49° SSE 04:37:33 10° ENE
STARLINK-1088 3.4 04:32:41 15° SW 04:34:54 49° SSE 04:37:44 10° ENE
STARLINK-1166 3.4 04:33:09 21° WNW 04:35:04 54° N 04:38:14 10° E
STARLINK-1115 3.4 04:32:55 15° SW 04:35:08 50° SSE 04:37:59 10° ENE
MOS 1-B 4.3 04:29:23 10° NNE 04:35:14 82° WNW 04:41:03 10° SSW
STARLINK-1076 3.4 04:33:08 15° SW 04:35:22 50° SSE 04:38:14 10° ENE
STARLINK-1092 3.4 04:33:21 15° SW 04:35:35 50° SSE 04:38:27 10° ENE
STARLINK-1080 3.4 04:33:33 15° SW 04:35:47 50° SSE 04:38:40 10° ENE
NOAA 6 4.3 04:30:45 10° NNE 04:35:58 75° ESE 04:41:07 10° S
STARLINK-1090 3.4 04:33:46 15° SW 04:36:01 51° SSE 04:38:54 10° ENE
STARLINK-1089 3.4 04:34:00 15° SW 04:36:16 51° SSE 04:39:07 10° ENE
STARLINK-1107 3.4 04:34:12 15° SW 04:36:28 51° SSE 04:39:19 10° ENE
STARLINK-1109 3.4 04:34:25 14° SW 04:36:42 51° SSE 04:39:34 10° ENE
STARLINK-1091 3.4 04:34:39 14° SW 04:36:57 51° SSE 04:39:48 10° ENE
USA 116 3.3 04:33:59 10° S 04:37:03 46° W 04:40:03 10° NNW
STARLINK-1072 3.4 04:34:51 14° SW 04:37:09 52° SSE 04:40:01 10° ENE
STARLINK-1165 3.3 04:35:12 20° WNW 04:37:12 55° N 04:40:23 10° E
Cosmos 482 Debris 4.1 04:37:16 19° SSW 04:37:16 19° SSW 04:38:39 10° SSE
STARLINK-1096 3.4 04:35:04 14° SW 04:37:22 52° SSE 04:40:13 10° ENE
STARLINK-1079 3.3 04:35:17 14° SW 04:37:36 52° SSE 04:40:29 10° ENE
Cosmos 1633 3.0 04:34:13 10° NNW 04:37:39 39° W 04:41:03 10° SSW
CZ-4B DEB 4.2 04:32:17 10° NNE 04:37:48 82° WNW 04:43:16 10° SSW
STARLINK-1116 3.3 04:35:31 14° SW 04:37:50 52° SSE 04:40:42 10° ENE
Cosmos 2123 Rocket 4.2 04:31:33 10° S 04:37:51 79° E 04:44:11 10° NNE
Lacrosse 5 3.1 04:36:01 17° W 04:38:10 22° SW 04:42:01 10° S
STARLINK-1094 3.3 04:35:57 14° SW 04:38:17 53° SSE 04:41:09 10° ENE
Cosmos 1943 3.1 04:32:47 10° SW 04:38:24 75° WNW 04:44:05 10° NNE
STARLINK-1117 3.3 04:36:09 14° SW 04:38:30 53° SSE 04:41:23 10° ENE
STARLINK-1078 3.3 04:36:22 14° SW 04:38:43 53° SSE 04:41:36 10° ENE
CZ-4C R/B 3.8 04:34:38 13° WNW 04:38:44 27° N 04:44:24 10° NE
STARLINK-1108 3.3 04:36:35 14° SW 04:38:57 53° SSE 04:41:50 10° ENE
STARLINK-1071 3.3 04:36:48 14° SW 04:39:09 53° SSE 04:42:01 10° ENE
STARLINK-1169 3.3 04:37:15 19° WNW 04:39:21 56° N 04:42:32 10° E
STARLINK-1110 3.3 04:37:02 14° SW 04:39:24 54° SSE 04:42:17 10° ENE
STARLINK-1122 3.3 04:37:27 14° SW 04:39:51 54° SSE 04:42:44 10° ENE
ATLAS 2AS CENTAUR R/B 3.5 04:32:21 10° NW 04:40:00 55° NE 04:47:02 10° ESE
STARLINK-1126 3.3 04:37:40 14° SW 04:40:04 54° SSE 04:42:57 10° ENE
Helios 1A Rocket 3.9 04:36:07 10° NNE 04:40:12 51° E 04:44:13 10° S
STARLINK-1082 3.3 04:37:54 13° SW 04:40:19 54° SSE 04:43:12 10° ENE
STARLINK-1100 3.3 04:38:06 13° SW 04:40:31 55° SSE 04:43:24 10° ENE
STARLINK-1083 3.3 04:38:19 13° SW 04:40:45 55° SSE 04:43:38 10° ENE
STARLINK-1125 3.3 04:38:32 13° SW 04:40:58 55° SSE 04:43:51 10° ENE
STARLINK-1178 3.3 04:39:15 18° WNW 04:41:27 56° NNE 04:44:38 10° E
Cosmos 1656 Rocket 3.8 04:35:54 10° NW 04:41:27 55° WSW 04:46:59 10° S
COSMO-SKYMED 1 3.3 04:38:18 10° SSW 04:42:07 30° W 04:45:58 10° NNW
Cosmos 1802 Rocket 4.1 04:37:02 10° NNW 04:43:20 58° W 04:49:36 10° S
STARLINK-1120 3.3 04:41:13 17° WNW 04:43:30 57° NNE 04:46:41 10° E
Cosmos 1633 Rocket 3.1 04:39:55 10° N 04:44:19 86° E 04:48:42 10° S
STARLINK-1131 3.3 04:43:22 17° WNW 04:45:43 58° NNE 04:48:55 10° E
CZ-4B R/B 3.3 04:40:46 10° NNE 04:46:09 79° ESE 04:51:26 10° SSW
STARLINK-1170 2.8 04:44:42 18° WNW 04:46:29 57° NNE 04:49:05 10° E
Cosmos 1666 Rocket 3.5 04:42:24 10° NNW 04:46:52 76° W 04:51:16 10° S
CZ-2C R/B 3.8 04:43:10 10° NNW 04:46:54 20° WNW 04:50:10 12° W
Cosmos 1862 3.3 04:43:30 10° NNW 04:47:23 56° W 04:51:16 10° S
Cosmos 2221 3.5 04:44:08 10° SW 04:47:46 26° WNW 04:51:25 10° NNW
STARLINK-1190 3.3 04:45:30 16° WNW 04:47:58 59° NNE 04:51:09 10° E
Cosmos 1763 Rocket 4.2 04:43:18 10° NNW 04:48:35 59° ENE 04:53:49 10° SE
STARLINK-1098 4.4 04:45:57 10° SW 04:49:52 49° SSE 04:53:48 10° ENE
ADEOS Rocket 3.2 04:44:34 10° S 04:50:51 75° WSW 04:57:56 10° NNW
SL-08 R/B 4.4 04:45:19 10° NNW 04:51:26 68° W 04:57:27 10° S
Cosmos 1864 Rocket 4.4 04:45:41 10° NNW 04:51:47 70° W 04:57:53 10° S
STARLINK-1123 4.3 04:50:36 10° SW 04:54:33 53° SSE 04:58:30 10° ENE
ALOS 2.7 04:50:55 10° N 04:55:16 40° WNW 04:59:36 10° SW
Cosmos 1484 Rocket 4.0 04:52:11 10° NNW 04:55:19 23° WNW 04:58:29 10° WSW
STARLINK-1097 4.2 04:55:23 10° SW 04:59:20 56° SSE 05:03:19 10° ENE
Iridium 51 4.3 04:55:57 10° S 04:59:51 81° E 05:03:30 10° N
TELKOM 3 2.7 04:58:59 14° W 05:00:41 68° S 05:02:48 10° ESE
Cosmos 192 4.4 04:57:11 10° NNW 05:02:08 87° ENE 05:07:02 10° SSE
STARLINK-1099 4.1 05:00:03 10° SW 05:04:02 60° SSE 05:08:02 10° ENE
COSMOS 2455 3.9 05:00:44 10° NNW 05:06:31 45° NE 05:12:16 10° ESE
STARLINK-1179 2.5 05:04:27 11° WNW 05:07:02 76° NNE 05:09:39 10° ESE
GEOS 3 Rocket 4.1 05:02:37 10° NE 05:07:36 44° NW 05:12:38 10° WSW
STARLINK-1176 2.5 05:05:01 10° WNW 05:07:39 76° NNE 05:10:20 10° ESE
STARLINK-1104 4.0 05:04:40 10° SW 05:08:40 63° SSE 05:12:43 10° ENE
Cosmos 2016 Rocket 4.3 05:03:14 10° NNW 05:09:06 45° W 05:15:01 10° SSW
STARLINK-1129 3.1 05:06:04 10° WNW 05:09:21 72° NNE 05:12:36 10° ESE
STARLINK-1134 3.1 05:08:03 10° WNW 05:11:19 73° NNE 05:14:34 10° ESE
Cosmos 1340 2.6 05:07:43 10° NNW 05:11:30 72° W 05:15:14 10° S
Cosmos 1346 Rocket 2.8 05:07:42 10° NNW 05:11:39 90° SW 05:15:32 10° S
STARLINK-1144 3.9 05:09:24 10° SW 05:13:25 67° SSE 05:17:28 10° ENE
STARLINK-1135 3.1 05:10:25 10° WNW 05:13:41 75° NNE 05:16:57 10° ESE
PAYLOAD B 4.5 05:10:08 10° N 05:15:32 50° WNW 05:20:51 10° SW
USA 215 3.8 05:11:55 10° E 05:18:12 51° N 05:24:29 10° WNW
